Boonton, New Jersey, United States (07005)
Lat: 40.90N, Lon: 74.41W
Wx Zone: NJZ008
Local Info
Past Weather Observations for Thursday, February 11, 2016

NOTE: This archive is for the closest National Weather Service station to Boonton. Information may differ from the station used for current weather conditions.

Click here for Long-term Archive

Time Weather Temperature Dewpoint Humidity Pressure Winds Precip Visibility
23:53
Clear
18°F / -8°C -4°F / -20°C 38% 30.21 in
(1023 mb)
WNW 11.5 mph
(WNW 19 kph)
- 10SM
22:53
Clear
18°F / -8°C -2°F / -19°C 41% 30.18 in
(1022 mb)
NW 16.1 mph
(NW 26 kph)
- 10SM
21:53
Clear
18°F / -8°C -6°F / -21°C 35% 30.18 in
(1022 mb)
NW 12.7 mph
(NW 20 kph)
- 10SM
20:53
Clear
19°F / -7°C -6°F / -21°C 32% 30.15 in
(1021 mb)
NW 23 mph
(NW 37 kph)
- 10SM
19:53
Clear
19°F / -7°C -6°F / -21°C 32% 30.12 in
(1020 mb)
NW 20.7 mph
(NW 33 kph)
- 10SM
18:53
Clear
21°F / -6°C -6°F / -21°C 30% 30.09 in
(1019 mb)
NW 19.6 mph
(NW 32 kph)
- 10SM
17:53
Mostly Cloudy
21°F / -6°C -6°F / -21°C 30% 30.06 in
(1018 mb)
NW 13.8 mph
(NW 22 kph)
- 10SM
16:53
Partly Cloudy
23°F / -5°C -6°F / -21°C 28% 30.01 in
(1016 mb)
NW 17.3 mph
(NW 28 kph)
- 10SM
15:53
Overcast
25°F / -4°C -2°F / -19°C 30% 29.98 in
(1015 mb)
NW 19.6 mph
(NW 32 kph)
- 10SM
14:53
Overcast
25°F / -4°C °F / -18°C 33% 29.95 in
(1014 mb)
NW 10.4 mph
(NW 17 kph)
- 10SM
13:53
Overcast
25°F / -4°C -2°F / -19°C 30% 29.92 in
(1013 mb)
NW 19.6 mph
(NW 32 kph)
- 10SM
12:53
Overcast
25°F / -4°C -4°F / -20°C 28% 29.92 in
(1013 mb)
NW 17.3 mph
(NW 28 kph)
- 10SM
11:53
Overcast
23°F / -5°C -4°F / -20°C 30% 29.92 in
(1013 mb)
NW 21.9 mph
(NW 35 kph)
- 10SM
10:53
Overcast
23°F / -5°C -4°F / -20°C 30% 29.92 in
(1013 mb)
WNW 16.1 mph
(WNW 26 kph)
- 10SM
09:53
Partly Cloudy
25°F / -4°C -2°F / -19°C 30% 29.92 in
(1013 mb)
W 16.1 mph
(W 26 kph)
- 10SM
08:53
Clear
23°F / -5°C °F / -18°C 36% 29.92 in
(1013 mb)
SSW 15 mph
(SSW 24 kph)
- 10SM
07:53
Clear
21°F / -6°C °F / -18°C 38% 29.89 in
(1012 mb)
WNW 8.1 mph
(WNW 13 kph)
- 10SM
06:53
Clear
21°F / -6°C °F / -18°C 38% 29.89 in
(1012 mb)
W 6.9 mph
(W 11 kph)
- 10SM
05:53
Partly Cloudy
21°F / -6°C -2°F / -19°C 35% 29.86 in
(1011 mb)
WNW 13.8 mph
(WNW 22 kph)
- 10SM
04:53
Partly Cloudy
23°F / -5°C °F / -18°C 36% 29.83 in
(1010 mb)
WNW 11.5 mph
(WNW 19 kph)
- 10SM
03:53
Overcast
25°F / -4°C °F / -18°C 33% 29.8 in
(1009 mb)
NW 16.1 mph
(NW 26 kph)
- 10SM
02:53
Overcast
25°F / -4°C 7°F / -14°C 46% 29.8 in
(1009 mb)
NW 15 mph
(NW 24 kph)
0.00 in
(0.00 mm)
10SM
01:53
Overcast
Light Snow
27°F / -3°C 18°F / -8°C 69% 29.77 in
(1008 mb)
NW 12.7 mph
(NW 20 kph)
0.00 in
(0.00 mm)
4SM
00:53
Overcast
27°F / -3°C 18°F / -8°C 69% 29.77 in
(1008 mb)
NW 12.7 mph
(NW 20 kph)
- 10SM
Time Weather Temperature Dewpoint Humidity Pressure Winds Precip Visibility


Weather for websites

WeatherForYou.com, LLC is not responsible for any damages or problems caused by this service. Current weather conditions are obtained from the closest station including government and personal stations which may have varying degrees of accuracy. Weather forecasts are derived from the NOAA NDFD. Like all things, this site belongs to Jesus Christ... He just trusts us to maintain it. If you have any questions or comments email webmaster@weatherforyou.com

Copyright © 2016, WeatherForYou.com LLC. All rights reserved.